Temperature
21 20 20 20 19 19 21 22 22 22 22 22 22 22 21 20 20 20 20 20 20 20 19 19 19 19 19 19 19 19 19 19 19 19 19 19 19 19 19 19 19 19 19 19 19 18 18 18 18
21 21 20 20 19 20 21 22 22 22 22 22 22 21 21 20 20 20 20 20 20 20 19 19 19 19 19 19 19 19 19 19 19 19 19 19 19 19 19 19 19 19 18 18 18 18 18 18 18
21 21 20 19 20 20 22 22 22 23 23 23 22 21 21 20 20 20 20 20 20 20 19 19 19 19 19 19 19 19 19 19 19 19 19 19 19 19 19 19 19 18 18 18 18 18 18 18 18
21 21 21 20 21 22 22 22 22 23 23 22 22 21 20 20 20 20 20 20 20 20 19 19 19 19 19 19 19 19 19 19 19 18 18 18 19 18 18 18 18 18 18 18 18 18 18 18 18
22 21 20 20 22 22 23 23 23 22 22 22 21 20 20 20 20 20 20 20 20 20 19 19 19 19 19 19 19 19 19 19 18 18 18 18 18 18 18 18 18 18 18 18 18 18 18 18 18
22 20 20 21 22 23 23 23 23 22 22 22 21 20 19 20 20 20 20 20 20 20 19 19 19 19 18 18 18 19 18 18 18 18 18 18 18 18 18 18 18 18 18 18 18 18 18 18 18
21 20 21 21 22 23 23 23 23 22 22 22 21 20 19 19 20 20 20 20 19 19 19 19 19 19 18 18 18 18 18 18 18 18 18 18 18 18 18 18 18 18 18 18 18 18 18 18 18
22 20 21 21 22 23 24 24 23 23 22 22 22 20 19 20 20 20 20 19 19 19 19 19 19 19 19 19 18 18 18 18 18 18 18 18 18 18 18 18 18 18 18 18 18 18 18 18 18
22 20 21 22 22 23 24 23 23 23 22 22 21 21 21 20 20 20 19 19 19 19 19 19 19 19 19 18 18 18 18 18 18 18 18 18 18 18 18 18 18 18 18 18 18 18 18 18 18
22 21 22 23 23 23 24 23 23 23 22 21 21 21 20 20 20 20 20 19 19 19 19 19 19 19 19 18 18 18 18 18 18 18 18 18 18 18 18 18 17 18 18 17 17 17 17 18 18
22 22 23 24 25 24 24 24 23 22 21 21 21 21 20 20 20 20 20 20 19 19 19 19 19 19 19 19 18 18 18 18 18 18 18 18 18 18 18 18 18 18 18 17 18 17 17 18 18
23 23 25 25 25 24 24 24 23 22 23 23 22 21 20 20 20 20 20 20 19 19 19 19 19 19 18 18 18 18 18 18 18 18 18 18 18 18 18 17 18 18 17 17 17 18 18 18 18
24 24 25 25 25 25 24 23 23 22 23 22 21 21 20 20 20 20 20 20 19 19 19 19 19 18 18 18 18 18 18 18 18 18 18 18 18 17 17 17 17 17 17 17 17 18 18 18 17
25 25 25 25 25 25 23 23 23 22 22 22 21 20 20 20 20 20 20 20 20 19 19 19 19 18 18 18 18 18 18 18 17 17 17 17 17 17 17 17 17 17 17 17 17 17 17 17 18
25 24 24 24 24 24 24 23 22 22 22 21 20 20 20 20 20 20 20 20 20 19 19 19 19 18 18 18 18 18 18 18 17 17 17 17 17 17 17 17 17 17 17 17 17 17 17 17 17
24 23 23 24 24 24 24 22 22 22 21 20 20 20 20 20 20 20 20 20 20 19 19 19 18 18 18 18 18 18 18 17 17 17 17 17 17 17 17 17 17 17 17 17 17 17 17 17 17
23 23 23 24 24 24 23 22 22 22 21 20 20 20 20 20 20 20 20 20 20 19 19 19 18 18 18 18 18 17 17 17 17 17 17 17 17 17 17 17 17 17 17 17 17 17 17 17 17
24 23 24 24 24 23 22 22 22 21 21 20 20 20 20 20 20 20 20 19 19 19 19 19 19 18 18 18 18 17 17 17 17 17 17 17 17 17 17 17 17 17 17 17 17 17 17 17 17
24 24 24 24 24 23 22 22 21 21 21 20 20 20 20 20 20 20 20 19 19 19 19 19 19 18 18 18 18 17 17 17 17 17 17 17 17 17 17 17 16 17 17 17 17 17 17 17 17
24 24 24 24 24 23 22 21 21 21 21 21 20 20 20 20 19 19 19 19 19 19 19 19 19 18 18 18 17 17 17 17 17 17 17 17 17 17 17 17 16 16 17 17 17 17 17 16 16
24 24 24 24 23 22 22 21 21 21 21 21 21 21 20 20 20 20 20 20 19 19 19 19 19 18 18 18 18 17 17 17 17 17 17 17 17 16 16 16 16 16 16 16 16 16 16 16 16
24 25 25 24 22 21 22 21 21 20 20 20 20 20 20 20 20 20 20 20 20 19 19 19 19 18 18 18 17 17 17 17 17 17 17 17 17 16 16 16 16 16 16 16 16 16 16 16 16
25 24 23 23 21 20 20 20 20 20 20 20 20 20 21 21 21 21 21 20 20 20 19 19 18 18 18 17 17 17 17 17 17 17 17 17 17 16 16 16 16 16 16 16 16 16 16 16 16
24 23 22 20 20 21 21 20 20 19 20 20 20 21 21 21 21 21 21 20 20 20 19 19 18 18 18 17 17 17 17 17 17 17 17 17 17 16 16 16 16 16 16 16 16 16 16 16 16
24 22 21 21 20 20 20 20 20 21 21 20 20 21 21 21 21 21 20 20 20 20 19 19 18 18 18 18 17 17 17 17 17 17 17 16 16 16 16 16 16 16 16 16 15 15 15 15 15
23 22 22 22 21 20 20 20 20 21 21 21 21 21 21 21 21 21 21 21 20 20 19 19 19 18 18 18 17 17 17 17 17 16 16 16 16 16 16 16 16 15 15 15 15 15 15 15 15
23 21 21 19 20 20 20 20 20 21 20 20 20 20 21 21 21 21 21 20 20 20 20 19 19 18 18 18 17 17 17 17 17 16 16 16 16 16 16 16 16 15 15 15 15 15 15 15 15
23 20 19 19 20 21 21 20 20 21 20 20 19 20 20 20 21 21 21 20 20 20 19 19 19 18 18 18 17 17 17 17 16 16 16 16 16 16 16 16 16 15 15 15 15 15 15 15 15
22 21 18 17 18 19 20 20 21 20 20 19 19 20 20 20 21 21 20 20 20 20 19 19 19 18 18 17 17 17 17 16 16 16 16 16 16 16 15 15 15 15 15 15 15 15 14 14 14
23 21 19 21 20 18 19 20 21 20 19 19 20 20 20 20 21 21 20 20 20 19 19 19 19 18 18 17 17 17 16 16 16 16 16 16 16 15 15 15 15 15 15 14 14 14 14 14 14
Wind_Speed
9 7 3 1 4 5 3 3 0 2 3 2 3 4 5 3 2 2 0 4 5 5 6 8 8 8 8 8 8 8 9 9 10 10 10 10 10 11 10 10 11 11 10 10 9 9 9 9 9
6 5 2 2 4 4 3 2 2 2 3 3 4 4 5 4 3 4 2 3 6 6 6 7 8 8 7 7 8 8 9 9 9 9 9 9 9 9 9 9 10 10 10 9 9 9 9 9 8
6 3 2 3 3 2 0 1 3 3 3 2 3 4 4 3 3 3 2 6 6 5 5 6 8 7 7 7 7 7 7 7 7 8 8 8 8 8 9 8 9 9 9 9 8 8 8 9 8
3 1 3 5 3 1 2 2 4 4 3 5 4 5 4 4 2 3 7 8 7 5 4 5 7 7 6 7 7 6 6 6 6 6 7 7 7 7 8 8 8 8 8 8 8 7 7 8 8
1 3 5 4 3 2 1 2 2 3 3 4 4 4 4 5 7 9 8 7 7 4 3 4 6 6 6 6 5 5 5 4 4 5 6 6 6 6 6 6 7 7 7 7 7 7 7 7 7
3 4 4 2 3 2 2 2 3 4 4 3 4 4 3 3 6 7 7 6 5 4 3 3 5 5 5 5 4 4 4 3 3 4 4 5 5 5 6 6 6 6 6 6 6 6 7 7 6
3 4 3 1 1 1 1 2 3 3 4 2 3 4 2 2 4 6 6 6 5 4 3 2 2 3 4 3 3 3 3 3 2 2 3 4 4 4 4 5 5 5 5 5 6 7 6 6 6
3 4 3 0 1 1 2 2 2 3 3 3 3 5 4 3 6 7 7 6 5 4 3 2 2 2 1 1 2 2 2 2 1 1 2 3 3 3 2 3 4 4 4 5 5 6 6 6 6
3 4 1 3 4 3 3 3 1 3 5 3 3 3 5 9 9 7 6 5 3 2 2 2 2 2 1 1 0 1 1 1 1 1 1 1 0 0 1 2 3 3 4 4 5 5 5 5 6
3 2 5 4 5 4 3 4 4 4 4 3 5 7 10 10 9 8 6 4 2 1 0 1 1 1 1 0 1 1 0 1 1 2 2 1 1 0 0 1 2 3 4 4 4 4 4 3 3
3 4 3 2 4 4 4 3 3 6 2 4 7 10 11 10 8 7 5 4 3 2 0 0 0 0 1 0 1 1 1 1 2 2 2 1 2 1 2 2 2 3 3 3 2 1 2 2 2
3 4 3 2 4 4 4 3 3 2 3 5 9 12 11 10 8 7 6 4 2 2 1 0 0 1 0 0 0 0 0 0 1 2 2 1 1 1 1 1 2 2 2 2 2 1 1 1 2
2 2 0 2 5 5 5 4 3 1 5 9 11 11 10 9 7 5 4 3 3 2 1 1 1 1 1 1 0 1 0 0 0 1 2 1 0 1 1 1 2 2 1 1 1 0 0 0 1
1 2 2 2 3 4 6 3 3 2 8 10 10 9 8 7 6 5 4 3 3 3 2 1 1 1 1 1 1 1 1 1 1 1 1 1 0 0 1 1 1 2 2 1 1 0 1 1 1
2 4 5 2 2 3 6 3 1 5 9 9 8 7 6 5 4 5 5 4 4 3 1 1 2 1 1 1 1 0 0 1 1 0 1 1 1 1 1 1 1 2 2 1 0 1 1 0 0
4 5 2 2 1 3 6 2 3 7 10 8 7 6 5 4 3 3 3 3 3 2 2 1 1 2 1 1 1 0 0 1 0 1 1 2 2 1 1 1 1 1 1 1 1 1 1 1 0
4 1 2 2 2 3 4 3 2 7 9 8 7 6 5 4 3 3 3 3 3 2 2 2 1 2 2 1 1 1 1 1 0 1 1 2 2 1 1 0 1 1 1 1 0 1 1 1 1
3 2 2 3 2 4 3 2 3 6 8 8 7 6 5 6 6 4 3 3 2 2 2 2 1 1 2 2 2 2 2 1 1 1 1 1 1 1 1 0 1 0 1 1 1 1 1 1 0
3 2 2 2 2 4 3 3 4 7 7 7 6 6 6 6 4 3 3 3 2 1 1 1 1 1 2 1 1 0 1 1 1 1 1 2 1 1 1 1 1 1 1 0 1 1 1 1 1
2 1 1 2 2 3 2 1 2 5 7 7 7 7 7 5 4 4 3 3 3 3 2 1 1 1 1 1 1 1 1 0 0 1 2 2 2 1 0 1 0 0 1 1 1 2 1 0 1
1 3 3 2 2 4 3 3 2 2 2 3 5 6 6 8 8 6 5 4 4 4 4 3 2 2 2 1 1 2 2 2 2 2 2 3 2 2 1 1 0 0 1 1 1 1 2 1 0
3 3 4 4 3 1 2 2 5 3 3 4 5 5 7 7 8 7 6 6 5 5 4 3 2 2 1 2 2 3 2 1 0 0 1 2 2 2 2 1 1 1 1 0 0 1 1 2 1
3 3 4 4 4 2 3 1 6 1 3 6 6 7 7 8 8 8 8 8 6 5 4 3 2 1 1 2 3 2 1 1 0 1 2 2 2 2 2 1 1 1 0 0 0 1 1 1 2
5 6 7 6 5 2 2 1 6 4 6 5 6 7 6 7 8 7 6 6 5 4 4 4 3 2 2 2 2 3 2 1 1 1 2 2 2 2 3 2 1 1 0 0 1 1 1 1 2
5 6 5 6 5 4 2 2 7 7 6 6 6 6 6 6 7 6 6 6 5 5 5 4 4 3 2 3 2 2 2 2 2 1 0 1 1 2 2 2 1 1 0 0 0 0 1 1 2
2 7 7 4 4 5 3 4 6 5 4 3 3 4 4 5 6 7 6 5 5 5 5 5 5 4 3 3 2 2 2 2 1 1 1 1 1 2 2 1 1 1 1 0 0 0 1 1 1
5 3 5 7 2 1 5 5 7 2 3 1 1 2 4 5 5 5 5 5 5 5 5 6 5 4 3 3 2 2 1 1 1 1 1 1 1 1 1 1 1 1 1 1 0 0 1 0 1
5 8 6 6 5 2 5 4 4 5 4 1 1 2 2 4 4 4 4 4 4 4 4 4 5 4 3 2 2 2 1 1 1 0 1 1 1 1 1 1 1 1 1 1 1 1 1 1 1
3 4 5 5 4 6 3 6 5 7 5 4 4 3 3 4 5 4 4 3 3 3 3 4 4 3 2 2 2 1 1 0 0 0 1 1 1 0 0 0 1 2 2 2 1 1 1 0 1
4 6 7 5 3 4 4 7 5 4 4 4 3 2 2 3 3 3 4 3 3 3 3 4 4 3 3 2 2 1 0 0 0 1 2 1 1 1 1 0 1 2 2 2 2 1 1 1 1
Wind_Direction
160 152 143 118 56 48 17 340 103 63 41 26 64 77 90 81 102 130 68 125 117 127 147 153 148 142 135 131 130 131 131 131 130 131 134 138 144 149 152 156 157 156 157 157 155 153 153 151 149
151 155 139 61 70 54 349 335 77 80 127 125 68 63 66 58 63 99 98 123 120 129 137 147 149 144 137 131 127 129 130 130 130 132 135 140 143 147 148 153 157 160 162 162 164 161 159 157 155
163 174 89 66 76 129 244 315 113 91 103 69 67 53 64 59 91 120 138 123 107 113 127 146 146 143 140 139 132 126 127 129 132 135 137 141 146 149 155 158 163 168 170 167 166 168 166 165 164
157 88 59 63 49 278 200 187 126 109 55 42 77 63 56 35 82 118 118 112 104 98 116 146 145 141 135 132 133 133 132 133 138 143 146 147 149 154 160 164 167 170 175 174 173 175 176 177 176
85 75 54 41 5 354 60 118 115 98 66 50 71 74 39 14 81 104 110 111 111 103 111 132 139 136 132 134 134 132 133 135 140 146 152 154 156 159 165 170 174 176 183 184 180 182 185 186 184
58 65 68 40 360 16 56 81 86 85 91 84 79 82 47 54 93 109 108 106 107 108 107 122 134 133 133 137 143 144 141 140 144 147 151 158 166 173 176 179 176 178 183 191 194 194 196 197 194
89 82 95 121 42 28 134 103 101 111 103 100 106 93 77 86 105 112 103 99 93 91 84 66 104 135 143 139 140 145 145 136 129 159 171 168 166 170 186 193 191 193 195 197 202 202 201 204 199
126 94 64 38 160 222 156 101 100 105 98 99 98 124 160 163 124 104 94 88 84 77 70 57 51 61 97 140 156 152 138 122 109 144 163 172 172 172 189 197 196 203 212 212 212 213 211 206 202
113 77 164 213 187 206 167 125 99 78 95 78 77 122 139 132 124 111 97 82 80 79 53 50 44 42 50 76 149 182 165 110 85 62 123 169 81 201 238 223 211 218 222 225 228 229 217 211 206
109 135 220 211 185 177 162 142 146 104 92 80 74 84 112 127 132 133 130 131 131 126 57 56 55 41 45 53 33 357 341 3 33 21 358 16 38 38 268 259 253 262 251 247 245 236 223 216 216
161 193 224 209 172 151 138 124 107 125 156 175 150 138 136 136 138 144 152 156 168 181 172 87 65 46 95 83 43 23 4 6 10 11 10 30 34 18 359 336 312 308 294 291 283 268 244 214 198
182 244 203 178 139 133 139 126 104 154 190 143 141 141 142 147 156 164 168 171 157 146 195 275 60 55 42 137 308 216 89 38 15 354 12 31 43 27 6 352 328 324 314 319 312 310 267 214 199
191 249 138 134 124 127 109 108 123 107 105 116 126 135 149 158 164 167 165 156 147 158 175 178 112 91 51 67 349 56 100 104 43 22 16 31 56 12 358 345 340 328 320 324 319 289 258 234 196
236 71 57 68 110 131 122 108 100 113 118 123 134 146 158 165 164 157 155 155 165 182 186 166 144 126 93 88 68 46 87 112 74 39 4 18 36 11 18 2 349 336 325 301 277 254 243 236 216
61 60 38 42 98 136 117 70 161 151 133 137 148 153 157 165 161 172 179 176 180 182 179 170 157 114 109 107 91 68 78 103 76 358 0 17 24 22 51 29 352 331 335 344 63 61 79 121 191
50 62 41 276 152 148 130 207 211 151 146 154 161 161 162 176 181 182 170 164 166 157 149 156 147 119 121 118 88 62 80 106 60 355 2 13 11 39 73 40 334 331 5 49 93 94 92 49 52
36 65 244 282 191 149 147 212 188 155 155 166 173 173 174 185 198 194 170 166 162 160 148 134 101 101 104 80 63 63 57 47 354 20 2 352 354 19 105 55 303 11 47 41 78 86 115 97 43
230 226 244 231 211 139 155 208 166 165 170 180 183 182 183 196 210 199 176 163 160 153 145 141 108 85 92 83 63 44 32 12 11 24 7 347 336 9 104 47 323 58 71 50 49 67 79 98 34
182 186 254 268 193 141 170 192 196 178 184 194 195 190 196 207 205 186 175 159 149 145 145 157 150 124 107 93 94 157 291 323 358 11 20 7 352 11 68 44 17 53 81 89 105 98 83 54 54
154 183 282 356 75 116 124 266 240 194 200 202 198 199 202 199 189 185 175 168 173 184 188 181 187 158 143 151 190 176 168 184 318 353 22 20 11 1 50 82 293 126 132 70 86 108 94 63 71
214 196 202 178 61 54 71 347 287 243 213 220 211 201 200 198 194 193 189 188 186 197 198 198 201 192 183 158 113 98 76 50 29 16 12 8 10 5 19 44 91 100 142 164 181 153 149 165 51
260 239 171 141 102 358 67 285 283 255 254 233 229 212 209 199 190 193 193 194 198 205 196 188 184 183 171 140 123 131 125 127 234 328 4 359 13 9 1 23 73 90 100 135 222 143 158 156 168
194 64 95 105 112 55 23 122 286 313 263 249 238 223 213 199 191 195 198 198 198 193 186 184 173 175 160 147 149 134 119 150 86 54 35 15 5 8 9 14 54 59 61 39 188 121 141 160 167
128 73 59 54 70 22 292 180 276 243 231 243 235 227 208 195 192 196 193 184 183 180 178 168 167 189 177 160 153 153 155 143 89 41 18 3 355 355 3 12 38 48 36 309 261 189 159 166 160
83 84 34 8 11 266 277 213 254 259 238 223 228 224 205 191 185 185 185 179 180 181 180 172 173 194 194 171 170 180 182 172 172 191 287 341 341 334 332 348 354 3 322 293 249 149 196 195 180
150 135 153 193 228 276 318 249 261 275 271 235 215 202 184 179 182 183 185 181 184 186 181 176 181 194 188 182 193 193 186 185 206 215 227 249 263 284 309 329 340 333 334 330 50 308 254 217 199
133 132 148 130 134 318 293 293 305 319 6 37 125 156 170 173 172 176 174 173 177 183 184 181 180 186 186 187 183 182 189 191 219 236 236 257 274 315 348 4 6 1 10 356 55 329 294 221 213
126 139 102 117 146 240 295 288 262 276 283 278 177 170 184 168 162 167 172 170 175 182 180 169 170 181 181 166 171 166 176 193 215 219 282 293 313 348 27 18 359 352 359 5 36 32 355 45 335
99 90 104 112 146 157 241 271 235 230 230 221 215 196 183 174 171 171 168 163 165 155 149 158 162 158 152 151 157 150 157 171 151 243 292 307 312 315 349 318 348 360 5 10 20 353 357 1 334
156 157 147 152 198 167 178 263 292 222 211 194 199 194 162 158 159 159 153 142 141 152 154 157 157 151 154 147 142 162 198 351 355 313 308 310 288 287 284 336 34 19 13 12 24 342 349 345 330
Height
1493 1494 1495 1497 1499 1508 1510 1504 1498 1498 1498 1498 1497 1498 1499 1502 1505 1510 1506 1504 1505 1505 1506 1507 1508 1508 1509 1510 1511 1511 1512 1512 1513 1514 1515 1517 1518 1520 1521 1522 1523 1525 1526 1527 1529 1530 1531 1532 1533
1494 1494 1497 1498 1506 1519 1514 1502 1500 1498 1498 1498 1499 1499 1500 1502 1503 1504 1504 1505 1506 1507 1507 1508 1509 1510 1510 1511 1512 1512 1513 1514 1514 1515 1516 1518 1519 1520 1521 1522 1524 1525 1526 1527 1528 1530 1531 1532 1533
1494 1495 1498 1500 1509 1516 1511 1501 1499 1498 1499 1499 1500 1501 1503 1504 1505 1505 1506 1507 1507 1508 1509 1510 1510 1511 1512 1512 1513 1513 1514 1515 1515 1516 1517 1518 1519 1520 1521 1522 1523 1525 1526 1527 1528 1529 1531 1532 1533
1495 1498 1499 1505 1510 1506 1502 1500 1499 1499 1500 1500 1501 1504 1505 1507 1507 1507 1508 1509 1509 1510 1510 1511 1512 1512 1512 1513 1514 1514 1515 1516 1516 1517 1518 1519 1519 1520 1521 1522 1523 1524 1526 1527 1528 1529 1530 1532 1533
1497 1498 1504 1511 1509 1503 1500 1500 1500 1501 1501 1503 1503 1505 1507 1509 1509 1509 1510 1510 1511 1512 1512 1512 1513 1514 1514 1515 1515 1516 1516 1516 1517 1518 1518 1519 1520 1521 1521 1522 1523 1524 1525 1527 1528 1529 1530 1531 1533
1498 1500 1513 1517 1510 1503 1501 1501 1501 1502 1503 1504 1505 1507 1510 1511 1510 1511 1512 1512 1513 1513 1514 1514 1514 1515 1515 1516 1517 1517 1517 1517 1517 1518 1519 1519 1520 1521 1522 1522 1523 1524 1525 1526 1527 1528 1529 1531 1532
1500 1505 1513 1513 1511 1506 1503 1502 1503 1503 1504 1505 1506 1508 1511 1512 1513 1513 1514 1514 1515 1516 1516 1516 1516 1516 1517 1517 1517 1517 1517 1518 1517 1518 1519 1520 1520 1521 1522 1523 1523 1524 1525 1526 1527 1528 1529 1530 1531
1501 1505 1511 1513 1511 1508 1503 1503 1504 1504 1506 1507 1507 1508 1511 1512 1513 1514 1515 1516 1516 1517 1517 1517 1517 1518 1518 1518 1518 1518 1518 1518 1518 1518 1519 1520 1520 1521 1522 1523 1524 1524 1525 1526 1527 1528 1529 1530 1531
1502 1510 1515 1510 1509 1505 1502 1503 1505 1506 1506 1507 1508 1509 1511 1512 1514 1515 1516 1517 1517 1518 1519 1519 1519 1519 1519 1519 1519 1519 1519 1519 1518 1519 1519 1520 1521 1521 1522 1523 1523 1524 1525 1526 1526 1527 1528 1529 1530
1502 1511 1508 1501 1501 1502 1502 1503 1505 1507 1508 1509 1509 1510 1512 1513 1514 1515 1516 1517 1518 1519 1519 1520 1520 1520 1520 1520 1520 1520 1520 1520 1519 1520 1520 1520 1521 1522 1522 1523 1523 1524 1524 1525 1525 1526 1527 1528 1529
1501 1504 1500 1498 1499 1501 1503 1504 1506 1507 1509 1508 1509 1510 1512 1514 1515 1516 1517 1518 1519 1520 1520 1521 1521 1521 1520 1520 1520 1520 1520 1520 1520 1520 1520 1521 1521 1522 1522 1523 1523 1523 1524 1524 1525 1525 1526 1527 1528
1501 1499 1498 1497 1499 1501 1503 1505 1507 1507 1508 1508 1510 1511 1513 1514 1515 1517 1518 1519 1520 1521 1521 1521 1521 1521 1521 1521 1521 1521 1521 1521 1520 1521 1521 1521 1521 1522 1522 1522 1523 1523 1523 1523 1524 1524 1525 1526 1527
1499 1498 1497 1498 1499 1502 1504 1506 1507 1508 1509 1510 1511 1513 1514 1515 1516 1518 1519 1520 1521 1521 1521 1522 1522 1522 1522 1521 1521 1521 1521 1521 1521 1521 1521 1521 1521 1522 1522 1522 1522 1522 1522 1523 1523 1523 1524 1525 1525
1497 1497 1498 1499 1500 1503 1505 1507 1508 1510 1510 1511 1513 1514 1515 1516 1517 1518 1519 1520 1521 1521 1522 1522 1522 1522 1522 1522 1522 1522 1521 1521 1522 1522 1522 1522 1522 1521 1521 1521 1521 1522 1522 1522 1522 1523 1523 1523 1524
1497 1499 1501 1501 1501 1503 1505 1510 1509 1509 1510 1512 1514 1515 1516 1517 1518 1519 1520 1521 1521 1522 1522 1522 1523 1523 1523 1522 1522 1522 1522 1522 1522 1522 1522 1521 1521 1521 1521 1520 1520 1521 1521 1521 1521 1522 1522 1522 1522
1499 1506 1512 1503 1502 1503 1509 1517 1508 1509 1510 1512 1514 1516 1517 1518 1519 1520 1521 1522 1522 1522 1523 1523 1523 1523 1523 1523 1522 1522 1522 1522 1522 1522 1521 1521 1521 1520 1520 1520 1520 1520 1520 1520 1520 1520 1521 1521 1521
1509 1516 1515 1507 1502 1503 1508 1513 1509 1509 1510 1512 1514 1515 1517 1518 1520 1521 1521 1522 1522 1523 1523 1523 1523 1523 1523 1523 1523 1522 1522 1522 1521 1521 1521 1521 1520 1520 1519 1519 1518 1519 1519 1519 1519 1519 1519 1520 1520
1515 1515 1513 1511 1504 1504 1509 1511 1509 1510 1510 1511 1513 1514 1516 1517 1519 1520 1521 1522 1523 1523 1523 1523 1523 1523 1523 1523 1523 1522 1522 1521 1521 1521 1520 1520 1520 1519 1518 1518 1518 1518 1518 1518 1518 1518 1519 1519 1519
1504 1509 1512 1508 1502 1506 1510 1511 1509 1509 1510 1511 1512 1513 1514 1516 1518 1520 1521 1522 1523 1523 1523 1523 1523 1523 1522 1522 1522 1521 1521 1521 1520 1520 1520 1520 1519 1519 1518 1517 1517 1517 1517 1517 1517 1517 1517 1518 1518
1503 1510 1511 1507 1502 1506 1511 1512 1509 1508 1508 1509 1510 1511 1513 1515 1517 1518 1519 1520 1521 1522 1523 1523 1523 1522 1522 1521 1521 1520 1520 1520 1520 1520 1519 1519 1519 1518 1517 1517 1516 1516 1516 1516 1516 1516 1516 1517 1517
1504 1508 1508 1509 1507 1508 1512 1517 1512 1508 1509 1510 1510 1510 1511 1513 1514 1516 1518 1519 1520 1521 1522 1522 1522 1522 1522 1521 1520 1520 1520 1519 1519 1519 1519 1519 1518 1518 1517 1516 1516 1515 1515 1515 1515 1516 1516 1516 1517
1507 1498 1500 1505 1515 1523 1519 1532 1516 1510 1509 1508 1507 1508 1508 1510 1512 1514 1516 1517 1519 1520 1521 1521 1521 1521 1521 1521 1520 1520 1519 1519 1519 1519 1519 1518 1518 1517 1516 1515 1515 1515 1515 1515 1515 1515 1515 1515 1515
1499 1496 1500 1507 1516 1525 1524 1531 1523 1512 1512 1507 1505 1505 1506 1508 1510 1512 1514 1515 1517 1518 1519 1520 1521 1521 1521 1521 1521 1520 1520 1519 1519 1519 1518 1518 1517 1516 1516 1515 1514 1514 1514 1514 1514 1514 1514 1514 1514
1494 1500 1507 1516 1523 1536 1529 1532 1527 1515 1508 1504 1502 1502 1503 1505 1508 1510 1512 1514 1515 1517 1518 1519 1520 1520 1521 1520 1520 1520 1520 1520 1519 1518 1518 1517 1517 1516 1515 1515 1514 1514 1513 1513 1513 1513 1513 1513 1513
1497 1513 1533 1536 1544 1541 1527 1530 1524 1505 1500 1499 1499 1499 1501 1502 1505 1508 1510 1512 1513 1515 1516 1518 1519 1519 1520 1520 1519 1519 1519 1519 1519 1518 1518 1517 1516 1515 1514 1514 1513 1513 1513 1513 1512 1512 1512 1512 1512
1500 1510 1533 1543 1547 1541 1529 1530 1514 1500 1497 1496 1497 1498 1499 1501 1503 1505 1508 1510 1512 1514 1515 1516 1517 1518 1519 1519 1518 1519 1519 1519 1518 1518 1517 1516 1515 1515 1514 1513 1513 1512 1512 1512 1511 1511 1511 1511 1511
1502 1511 1512 1530 1537 1542 1535 1523 1508 1498 1496 1496 1496 1497 1498 1500 1502 1505 1507 1509 1511 1512 1514 1515 1516 1517 1518 1518 1518 1518 1518 1518 1518 1517 1517 1516 1515 1514 1513 1512 1512 1511 1511 1510 1510 1510 1510 1509 1509
1494 1504 1518 1531 1544 1546 1535 1528 1520 1504 1500 1498 1497 1497 1498 1500 1502 1504 1506 1508 1510 1512 1513 1514 1515 1516 1517 1517 1518 1518 1518 1517 1517 1517 1516 1515 1514 1513 1512 1511 1511 1510 1509 1509 1509 1508 1508 1508 1508
1501 1507 1517 1529 1531 1543 1544 1531 1502 1500 1497 1497 1497 1497 1498 1499 1501 1503 1505 1507 1509 1511 1512 1513 1514 1515 1516 1517 1517 1517 1517 1517 1516 1516 1515 1514 1514 1512 1511 1511 1510 1509 1508 1508 1508 1507 1507 1506 1506
1492 1501 1511 1522 1530 1535 1538 1527 1494 1494 1494 1495 1496 1497 1499 1500 1502 1503 1505 1506 1508 1510 1511 1512 1513 1515 1515 1516 1516 1517 1516 1516 1515 1515 1514 1514 1513 1512 1511 1510 1509 1508 1507 1507 1506 1506 1505 1504 1504